Location: *
(50.2903°S, 172.5375°W)
Time: 01:38:40
(UTC+00:00)

Resurs 1-4 Rocket - Pass Details

Date: 22 February 2020
Orbit: 800 x 814 km, 98.6° (Epoch: 08 April)

Event Time Altitude Azimuth Distance (km) Brightness Sun altitude
Exits shadow 12:28:22 57° 240° (WSW) 965 2.5 -28.7°
Drops below altitude 10° 12:32:55 10° 200° (SSW) 2,422 5.2 -28.5°
Sets 12:35:18 0° 197° (SSW) 3,358 6.2 -28.4°
